Location: Écorcheval
(49.4341°N, 1.5645°E)
Time: 17:24:57
(UTC+00:00)

Daily predictions for brighter satellites

Satellite Brightness Start Highest point End
(mag) Time Altitude Azimuth Time Altitude Azimuth Time Altitude Azimuth
Cosmos 2285 Rocket 4.2 17:30:02 10° NNW 17:36:19 51° ENE 17:42:31 10° SE
Cosmos 2233 Rocket 4.1 17:30:45 10° N 17:37:00 63° ENE 17:43:15 10° SSE
NOSS 0 Rocket 4.0 17:32:38 10° NNW 17:38:55 75° ENE 17:45:09 10° SE
ARIANE 6 FM1 Upper Stage 4.3 17:38:53 10° NNW 17:41:41 18° NNE 17:44:28 10° ENE
SMAP 4.2 17:38:03 10° S 17:42:35 50° W 17:47:08 10° NNW
Thor Agena Rocket 4.2 17:38:54 10° S 17:43:56 61° WSW 17:49:04 10° NNW
NOSS 3-4 (A) 4.0 17:38:12 10° NW 17:44:32 52° NE 17:51:58 10° ESE
NOSS 3-4 (C) 4.0 17:38:28 10° NW 17:44:49 51° NE 17:52:15 10° ESE
IRS-1C 4.3 17:40:17 10° SSE 17:45:37 80° WSW 17:50:59 10° NNW
Cosmos 1725 Rocket 4.2 17:39:31 10° N 17:45:47 82° W 17:52:04 10° S
Cosmos 2151 Rocket 3.6 17:45:01 10° N 17:49:32 82° E 17:54:02 10° SSE
Meteor 1-11 4.2 17:46:21 10° S 17:51:57 77° E 17:57:43 10° NNE
Cosmos 1607 4.0 17:49:05 10° SW 17:55:13 88° NW 18:01:28 10° NE
Radarsat Rocket 4.1 17:49:37 10° SE 17:55:20 56° ENE 18:01:34 10° NNW
Cosmos 1455 Rocket 3.6 17:53:10 10° N 17:57:07 34° ENE 18:01:02 10° SE
UNK 4.4 17:52:57 10° N 17:57:27 58° WNW 18:01:56 10° SSW
Cosmos 44 Rocket 4.4 17:55:01 10° SSE 17:59:00 25° ESE 18:03:06 10° ENE
YAOGAN 1 2.5 17:55:26 10° SSE 17:59:38 62° ENE 18:03:51 10° N
Cosmos 1975 Rocket 4.4 17:56:52 10° SE 17:59:51 18° E 18:02:50 10° NE
Cosmos 2228 4.1 17:56:38 10° NNE 17:59:55 22° ENE 18:03:12 10° ESE
PSLV R/B 3.8 17:56:38 10° SE 18:00:29 40° ENE 18:04:20 10° N
ATLAS 2AS CENTAUR R/B 4.0 17:54:35 10° W 18:00:36 30° NNW 18:06:31 10° NE
COSMO-SKYMED 1 3.0 17:56:50 10° NNE 18:00:41 37° E 18:04:30 10° SSE
Cosmos 1782 4.2 17:59:35 10° NNE 18:01:42 15° ENE 18:03:12 12° E
Cosmos 2297 Rocket 2.5 17:56:24 10° S 18:01:45 46° ESE 18:07:09 10° NE
Lacrosse 5 rocket 2.1 17:59:47 10° W 18:03:02 35° NNW 18:06:23 10° NE
DNEPR-1 R/B 4.4 18:00:03 10° NNW 18:04:31 40° NE 18:09:45 10° ESE
SPOT 1/Viking Rocket 3.9 18:01:31 10° S 18:06:38 72° WSW 18:11:46 10° NNW
Cosmos 2061 Rocket 4.1 18:01:03 10° N 18:07:29 89° E 18:13:47 10° S
Aureole 3 Rocket 2.6 18:03:42 10° N 18:07:38 53° ENE 18:10:47 10° SSE
CZ-2D R/B 3.3 18:05:35 10° SSE 18:09:28 66° ENE 18:13:28 10° N
Meteor 2-1 Rocket 4.4 18:04:04 10° NNW 18:09:54 89° W 18:15:49 10° S
Okean 1 Rocket 3.1 18:08:07 10° N 18:12:33 88° W 18:16:54 10° S
CZ-4C R/B 2.0 18:08:35 10° SW 18:12:53 74° NW 18:18:28 10° NE
SL-16 R/B 4.2 18:07:28 10° N 18:12:57 34° WNW 18:18:26 10° WSW
Cosmos 1356 Rocket 4.3 18:09:07 10° NNW 18:12:57 52° W 18:16:49 10° S
Cosmos 1464 Rocket 4.4 18:10:55 10° N 18:16:54 41° ENE 18:22:48 10° SE
Okean 2 Rocket 3.4 18:13:25 10° NNW 18:17:48 68° W 18:22:07 10° S
Cosmos 2344 4.4 18:13:01 10° SSE 18:19:14 26° ESE 18:23:43 14° ENE
Cosmos 2221 Rocket 3.5 18:15:27 10° S 18:19:55 83° E 18:24:27 10° NNE
USA 267 3.5 18:15:08 10° ENE 18:21:39 72° NNW 18:28:09 10° WSW
SJ-6B 3.2 18:21:17 10° SE 18:24:22 32° ENE 18:27:28 10° N
Cosmos 1980 3.8 18:24:28 10° NNW 18:30:09 80° WSW 18:35:47 10° SSE
Cosmos 2263 Rocket 3.3 18:26:14 10° SSE 18:30:25 21° E 18:31:44 20° E
Cosmos 1025 Rocket 3.6 18:26:16 10° SSW 18:30:31 61° WNW 18:34:51 10° N
Sich 1 Rocket 4.3 18:28:18 10° NNW 18:32:48 60° W 18:37:16 10° S
COSMOS 2428 4.3 18:28:02 10° NW 18:33:15 38° WSW 18:38:27 10° S
Cosmos 2237 Rocket 2.4 18:29:44 10° NNW 18:35:26 79° WSW 18:41:07 10° SSE
Meteor 1-31 Rocket 3.9 18:36:36 21° NE 18:36:36 21° NE 18:38:36 10° NNE
SKYMED 2 4.3 18:33:04 10° N 18:37:20 57° WNW 18:41:36 10° SSW
Meteor 1-27 4.2 18:32:12 10° N 18:38:01 80° ENE 18:43:51 10° SSE
Cosmos 1125 Rocket 4.5 18:36:34 10° NNW 18:41:33 49° WSW 18:46:32 10° S
SeaSat 1 4.1 18:37:44 10° S 18:42:13 36° WSW 18:46:44 10° NW
Cosmos 1570 Rocket 3.9 18:37:48 10° SSW 18:43:03 76° ESE 18:48:19 10° NNE
Resurs 01 Rocket 1.5 18:39:16 10° SSE 18:43:39 82° ENE 18:48:05 10° NNW
SPOT 5 3.5 18:45:52 24° ESE 18:48:06 36° ENE 18:52:44 10° N
NOSS 3-3 (C) 4.1 18:44:29 10° SW 18:49:48 64° NW 18:55:58 11° NE
DMSP B5D1-3 4.4 18:48:00 10° NNE 18:53:08 73° ESE 18:58:14 10° S
Tiangong -0.1 18:53:24 10° SW 18:55:36 17° S 18:55:41 17° SSE
Cosmos 2227 Rocket 2.2 18:55:30 10° S 19:01:00 57° ESE 19:05:16 17° NE
SL-16 R/B 2.3 18:55:46 10° NNW 19:01:21 55° NE 19:03:58 30° ESE
Cosmos 773 Rocket 3.9 18:58:40 10° SSW 19:03:56 87° ESE 19:09:16 10° NNE
Cosmos 1346 Rocket 3.5 19:00:37 10° S 19:02:49 33° SSE 19:02:49 33° SSE
Cosmos 2208 Rocket 3.9 18:58:56 10° SSW 19:04:10 82° ESE 19:09:31 10° NNE
Tsikada Rocket 4.4 19:02:29 10° SSE 19:08:00 37° E 19:13:35 10° NNE
CZ-4 R/B 2.7 19:17:56 24° N 19:17:56 24° N 19:19:39 10° N
Okean O Rocket 4.0 19:20:31 10° NNE 19:20:31 10° NNE 19:20:32 10° NNE
ARIANE 6 FM1 Upper Stage 2.8 19:17:31 10° NW 19:21:05 55° NNE 19:21:05 55° NNE
CZ-4B R/B 3.6 19:26:08 41° NE 19:26:08 41° NE 19:30:35 10° N
Terra 3.3 19:30:49 23° NNE 19:30:49 23° NNE 19:32:58 10° N
Cosmos 1544 Rocket 3.4 19:25:28 10° N 19:29:50 84° E 19:30:03 79° SE
Cosmos 1816 Rocket 4.4 19:23:53 10° S 19:30:02 89° W 19:36:19 10° N
CZ-4B DEB 4.1 19:29:06 51° ESE 19:30:18 64° ENE 19:35:43 10° N
BREEZE-M (TANK) 4.3 19:29:48 10° W 19:32:53 36° SSW 19:36:14 23° SSE
CSL-04 Debris 4.0 19:30:41 35° SSE 19:33:05 80° ENE 19:38:32 10° NNW
Cosmos 2034 Rocket 3.9 19:28:39 10° N 19:34:52 88° W 19:41:05 10° S
Cosmos 1782 3.5 19:33:15 10° NNW 19:36:43 46° W 19:37:19 41° SW
Cosmos 2228 4.2 19:33:07 10° NNW 19:37:04 41° W 19:41:00 10° SSW
Cosmos 1975 Rocket 3.9 19:32:58 10° SSW 19:37:12 50° WNW 19:41:25 10° N
TSX-5 4.1 19:32:15 10° NNW 19:37:23 77° NE 19:37:23 77° NE
CSL-04 Rocket 3.5 19:35:11 32° SSE 19:37:44 88° WSW 19:43:03 10° NNW
RESURS DK-1 4.3 19:34:18 10° NNW 19:35:40 18° N 19:35:40 18° N
Cosmos 44 Rocket 3.7 19:35:08 10° SW 19:40:02 62° NW 19:41:49 38° NNE
Lacrosse 5 rocket 3.0 19:37:37 10° NW 19:39:50 22° NNW 19:39:50 22° NNW
MOS 1 4.3 19:41:22 60° ENE 19:41:22 60° ENE 19:46:55 10° N
Cosmos 1634 Rocket 3.9 19:35:58 10° N 19:42:16 63° ENE 19:43:02 58° ESE
Cosmos 2297 Rocket 3.5 19:40:41 10° WSW 19:45:55 37° NW 19:51:10 10° NNE
Cosmos 1943 3.6 19:43:42 10° NNW 19:48:32 48° NNE 19:48:32 48° NNE
ATLAS 2AS CENTAUR R/B 4.0 19:48:06 10° NW 19:53:37 25° N 19:55:21 23° NNE
BREEZE-M DEB (TANK) 3.8 19:37:25 10° W 19:55:21 71° S 19:56:30 59° SE
ERS-1 Rocket 3.8 20:02:09 40° N 20:02:09 40° N 20:05:20 10° N
CZ-4C R/B 3.8 19:58:00 10° WNW 20:02:09 26° NNW 20:04:22 21° NNE
BREEZE-M DEB (TANK) 4.2 19:57:54 10° SW 20:02:39 62° SE 20:04:47 51° E
Cosmos 972 Rocket 4.4 19:58:52 10° NNW 20:02:46 56° NNW 20:02:46 56° NNW
USA 267 3.9 20:02:29 39° NNE 20:04:14 47° N 20:10:26 10° WNW
Cosmos 2279 Rocket 4.3 19:58:31 10° N 20:03:21 51° NNE 20:03:21 51° NNE
Feng Yun 1-1 Rocket 4.4 20:09:35 64° SSW 20:10:22 73° WSW 20:16:18 10° NNW
Cosmos 2263 Rocket 2.3 20:08:03 10° SW 20:13:31 72° WNW 20:13:31 72° WNW
PAYLOAD B 4.5 20:18:16 65° WSW 20:18:19 65° WSW 20:23:55 10° NNW
ADEOS 4.4 20:23:44 47° NW 20:23:44 47° NW 20:27:31 10° NNW
SPOT 5 4.4 20:24:54 31° WSW 20:26:01 35° W 20:30:40 10° NNW
Cosmos 2344 3.5 20:25:08 10° SW 20:32:48 76° NW 20:33:48 66° N
SL-16 R/B 3.8 20:40:22 10° NW 20:45:08 28° WSW 20:45:52 28° WSW
Cosmos 2227 Rocket 3.8 20:40:22 10° WSW 20:45:22 31° NW 20:47:09 26° NNW
Terra 4.4 21:09:26 16° NW 21:09:26 16° NW 21:10:30 10° NNW
ATLAS 2AS CENTAUR R/B 4.4 21:39:47 10° NW 21:42:46 25° NNW 21:42:46 25° NNW
